Find Jilin-1 GaoFen 07C 02 xing

NORAD ID: 68697 Int'l Des: 2026-080 Owner: CGSTL Country: CN Constellation: jilin-1 operational
LEOCIRCULARRETROGRADESSO

实时位置

正在加载3D地球...

关于 Jilin-1 GaoFen 07C 02 xing

正在加载描述...

即将过境

Passes for default location (London). Set your location on the main map for personalized predictions.

高度历史

Loading altitude history...

两行轨道根数

1 68697U 26080G 26105.07421781 .00002560 00000-0 16347-3 0 9993
2 68697 97.6672 180.7171 0014131 282.1232 77.8414 15.09509936 109
Epoch: Apr 15, 2026 • Age: 33 hours

当前状态

高度 548.6 km
速度 7.59 km/s
星下点 -49.31°S, 178.11°W
发射日期 Apr 14, 2026
运行时间 2 days
类型 other

技术详情

分类 Payload
质量 50.00 kg
干质量 50.00 kg
总质量 50.00 kg
长度 1.50 m
直径 1.00 m
跨度 1.50 m
形状 Box
制造商 CGSTL
平台类型 JL-1GF07
阶段状态 In Orbit
所有者/国家 CGSTL/CN

Most Searched